Location: Unspecified
(0.0000°N, 0.0000°E)
Time: 05:04:42
(UTC+00:00)

Vanguard 3 - Visible Passes

Search period start: 31 July 2015 00:00
Search period end: 10 August 2015 00:00
Orbit: 508 x 3270 km, 33.3° (Epoch: 29 July)

Date Brightness Start Highest point End Pass type
(mag) Time Alt. Az. Time Alt. Az. Time Alt. Az.
31 Jul 11.0 02:22:11 16° SSE 02:22:11 16° SSE 02:31:34 10° ESE visible
31 Jul 10.6 04:26:49 14° SSW 04:40:36 43° SSE 04:59:06 10° E visible
01 Aug 10.6 03:17:55 22° S 03:23:59 28° SSE 03:39:53 10° E visible
01 Aug 10.4 05:24:14 10° SW 05:42:06 69° SE 06:01:25 10° ENE visible
01 Aug 7.7 19:15:41 10° W 19:18:56 29° SSW 19:20:56 19° SSE visible
02 Aug 10.9 02:09:03 17° SSE 02:09:03 17° SSE 02:17:51 10° ESE visible
02 Aug 10.5 04:13:42 20° SSW 04:25:31 48° SE 04:44:34 10° ENE visible
03 Aug 10.4 03:04:51 27° S 03:09:16 31° SSE 03:25:38 10° E visible
03 Aug 10.2 05:09:30 10° SW 05:26:43 76° SE 05:46:35 10° ENE visible
03 Aug 8.3 19:02:26 10° W 19:05:07 18° SSW 19:07:51 10° SSE visible
04 Aug 10.9 01:56:02 18° SE 01:56:02 18° SE 02:04:03 10° ESE visible
04 Aug 10.2 04:00:41 27° SSW 04:10:21 54° SE 04:29:49 10° ENE visible
05 Aug 10.2 02:51:53 33° SSE 02:54:29 35° SE 03:11:09 10° E visible
05 Aug 10.1 04:56:32 16° SW 05:11:20 85° SE 05:31:34 10° NE visible
05 Aug 8.8 18:49:43 10° WSW 18:51:15 12° SSW 18:52:40 10° S visible
06 Aug 10.9 01:43:06 18° SE 01:43:06 18° SE 01:50:06 10° ESE visible
06 Aug 9.9 03:47:44 36° SSW 03:55:10 60° SE 04:14:51 10° ENE visible
07 Aug 10.1 02:38:58 39° SSE 02:39:38 39° SE 02:56:28 10° E visible
07 Aug 9.9 04:43:38 23° SW 04:55:59 87° NW 05:16:22 10° NE visible
08 Aug 10.9 01:30:12 18° ESE 01:30:12 18° ESE 01:35:59 10° E visible
08 Aug 9.6 03:34:51 49° SSW 03:39:59 68° SE 03:59:43 10° ENE visible
08 Aug 10.4 05:40:41 10° WSW 05:57:25 56° NNW 06:16:33 10° NE visible
09 Aug 10.0 02:26:05 43° SE 02:26:05 43° SE 02:41:35 10° ENE visible
09 Aug 9.8 04:30:44 30° WSW 04:40:44 78° NW 05:01:00 10° NE visible
